Date String (YYYY-MM-DD hh:mm:ss) UTC,Instrument flags,Ambient pressure (hPa),Sample flow (lpm),Bypass flow (lpm),Sample temperature (°C),Ambient temperature (°C),ASC tube jacket temperature (°C),LED temperature (°C),Box temperature (°C),Sample RH (%),Span deviation,Mass concentration (μg/m³),Mass concentration (μg/m³),Mass concentration (μg/m³)
DateTimeUTC,F1_M11,P_M11,Q1_M11,Q2_M11,T1_M11,T2_M11,T3_M11,T4_M11,T5_M11,U1_M11,ZSPAN_M11,X2_M11,X0_M11,X1_M11
2023-05-28 03:00:00,,0828.6,5.01,0.00,29.6,28.2,00.0,37.9,31.3,21.7,0000.0,0003.48,0007.69,0002.36
2023-05-28 03:01:00,,0828.5,5.01,0.00,29.6,28.2,00.0,37.9,31.3,21.7,0000.0,0003.52,0007.66,0002.36
2023-05-28 03:02:00,,0828.5,5.00,0.00,29.7,28.2,00.0,37.9,31.3,21.7,0000.0,0003.59,0007.78,0002.38
2023-05-28 03:03:00,,0828.4,5.00,0.00,29.7,28.3,00.0,38.0,31.3,21.9,0000.0,0003.59,0007.52,0002.38
2023-05-28 03:04:00,,0828.4,5.00,0.00,29.7,28.3,00.0,38.0,31.4,22.1,0000.0,0003.60,0008.10,0002.39
2023-05-28 03:05:00,,0828.4,4.99,0.00,29.7,28.3,00.0,38.0,31.4,22.1,0000.0,0003.58,0008.17,0002.39
2023-05-28 03:06:00,,0828.4,4.99,0.00,29.7,28.3,00.0,38.0,31.4,21.9,0000.0,0003.56,0008.26,0002.41
2023-05-28 03:07:00,,0828.4,4.99,0.00,29.8,28.3,00.0,38.0,31.4,21.7,0000.0,0003.54,0009.39,0002.41
2023-05-28 03:08:00,,0828.4,5.00,0.00,29.8,28.3,00.0,38.0,31.4,21.7,0000.0,0003.56,0009.71,0002.42
2023-05-28 03:09:00,,0828.4,5.00,0.00,29.8,28.4,00.0,38.0,31.4,21.7,0000.0,0003.63,0009.87,0002.46
2023-05-28 03:10:00,,0828.4,5.00,0.00,29.8,28.4,00.0,38.1,31.4,21.9,0000.0,0003.71,0010.16,0002.52
2023-05-28 03:11:00,,0828.4,5.01,0.00,29.8,28.4,00.0,38.1,31.5,22.1,0000.0,0003.76,0010.23,0002.58
2023-05-28 03:12:00,,0828.4,5.00,0.00,29.8,28.4,00.0,38.1,31.5,22.3,0000.0,0003.79,0010.71,0002.63
2023-05-28 03:13:00,,0828.5,5.00,0.00,29.8,28.4,00.0,38.1,31.5,22.3,0000.0,0003.73,0010.79,0002.63
2023-05-28 03:14:00,,0828.6,4.99,0.00,29.9,28.4,00.0,38.1,31.5,22.2,0000.0,0003.74,0010.82,0002.65
2023-05-28 03:15:00,,0828.6,5.01,0.00,29.9,28.4,00.0,38.1,31.5,22.1,0000.0,0003.74,0010.19,0002.67
2023-05-28 03:16:00,,0828.6,5.00,0.00,29.9,28.4,00.0,38.2,31.5,22.0,0000.0,0003.70,0009.68,0002.68
2023-05-28 03:17:00,,0828.6,5.01,0.00,29.9,28.5,00.0,38.2,31.5,21.9,0000.0,0003.72,0009.77,0002.70
2023-05-28 03:18:00,,0828.6,5.00,0.00,29.9,28.5,00.0,38.2,31.5,22.0,0000.0,0003.79,0008.71,0002.73
2023-05-28 03:19:00,,0828.6,5.00,0.00,29.9,28.3,00.0,38.2,31.5,22.2,0000.0,0003.82,0008.51,0002.77
2023-05-28 03:20:00,,0828.6,4.99,0.00,29.9,26.6,00.0,38.1,31.3,22.1,0000.0,0003.81,0009.14,0002.80
2023-05-28 03:21:00,,0828.5,5.01,0.00,29.8,25.3,00.0,38.0,31.1,22.2,0000.0,0003.84,0009.25,0002.81
2023-05-28 03:22:00,,0828.5,5.01,0.00,29.7,25.3,00.0,38.0,30.9,22.3,0000.0,0003.81,0009.30,0002.79
2023-05-28 03:23:00,,0828.5,4.99,0.00,29.6,25.5,00.0,38.0,30.9,22.5,0000.0,0003.77,0008.85,0002.79
2023-05-28 03:24:00,,0828.5,5.00,0.00,29.5,25.9,00.0,37.9,30.9,22.6,0000.0,0003.79,0008.75,0002.81
2023-05-28 03:25:00,,0828.5,5.00,0.00,29.5,26.2,00.0,37.9,30.9,22.7,0000.0,0003.78,0008.71,0002.82
2023-05-28 03:26:00,,0828.5,5.00,0.00,29.5,26.6,00.0,37.9,31.0,22.6,0000.0,0003.80,0008.79,0002.84
2023-05-28 03:27:00,,0828.6,5.01,0.00,29.5,26.8,00.0,37.9,31.0,22.7,0000.0,0003.85,0009.34,0002.88
2023-05-28 03:28:00,,0828.5,5.00,0.00,29.5,27.1,00.0,37.9,31.0,22.6,0000.0,0003.88,0009.56,0002.91
2023-05-28 03:29:00,,0828.6,4.99,0.00,29.5,27.3,00.0,37.9,31.0,22.7,0000.0,0003.87,0009.34,0002.94
2023-05-28 03:30:00,,0828.6,4.99,0.00,29.5,27.4,00.0,37.9,31.0,23.1,0000.0,0003.87,0009.30,0002.96
2023-05-28 03:31:00,,0828.6,5.00,0.00,29.5,27.6,00.0,37.9,31.1,23.1,0000.0,0003.88,0008.68,0002.97
2023-05-28 03:32:00,,0828.7,5.00,0.00,29.5,27.7,00.0,37.9,31.1,22.9,0000.0,0003.87,0008.57,0002.99
2023-05-28 03:33:00,,0828.7,5.00,0.00,29.5,27.7,00.0,37.9,31.1,22.6,0000.0,0003.91,0008.57,0003.03
2023-05-28 03:34:00,,0828.8,5.00,0.00,29.5,27.8,00.0,37.9,31.1,22.6,0000.0,0003.93,0008.71,0003.07
2023-05-28 03:35:00,,0828.8,5.00,0.00,29.5,27.9,00.0,37.9,31.1,22.7,0000.0,0003.97,0008.97,0003.11
2023-05-28 03:36:00,,0829.0,5.00,0.00,29.5,27.9,00.0,37.9,31.2,22.6,0000.0,0003.99,0009.24,0003.12
2023-05-28 03:37:00,,0828.9,5.01,0.00,29.5,28.0,00.0,37.9,31.2,22.5,0000.0,0004.01,0009.24,0003.14
2023-05-28 03:38:00,,0829.1,4.99,0.00,29.6,28.0,00.0,37.9,31.2,22.6,0000.0,0004.03,0008.90,0003.16
2023-05-28 03:39:00,,0829.1,4.99,0.00,29.6,28.1,00.0,37.9,31.2,22.9,0000.0,0004.04,0008.64,0003.17
2023-05-28 03:40:00,,0829.3,4.99,0.00,29.6,28.1,00.0,37.9,31.3,23.3,0000.0,0004.06,0008.99,0003.19
2023-05-28 03:41:00,,0829.4,5.00,0.00,29.6,28.2,00.0,37.9,31.3,24.3,0000.0,0004.07,0009.31,0003.19
2023-05-28 03:42:00,,0829.4,5.01,0.00,29.6,28.2,00.0,37.9,31.3,24.1,0000.0,0004.06,0009.38,0003.16
2023-05-28 03:43:00,,0829.4,5.01,0.00,29.6,28.2,00.0,37.9,31.3,23.9,0000.0,0003.99,0009.97,0003.12
2023-05-28 03:44:00,,0829.5,4.99,0.00,29.7,28.2,00.0,37.9,31.3,24.0,0000.0,0003.91,0010.16,0003.09
2023-05-28 03:45:00,,0829.6,4.98,0.00,29.7,28.2,00.0,38.0,31.3,24.0,0000.0,0003.88,0009.98,0003.02
2023-05-28 03:46:00,,0829.7,5.00,0.00,29.7,28.2,00.0,38.0,31.3,23.9,0000.0,0003.83,0009.64,0002.92
2023-05-28 03:47:00,,0829.7,5.00,0.00,29.7,28.2,00.0,38.0,31.3,24.0,0000.0,0003.79,0009.28,0002.88
2023-05-28 03:48:00,,0829.7,5.00,0.00,29.7,28.2,00.0,38.0,31.3,23.8,0000.0,0003.77,0009.39,0002.84
2023-05-28 03:49:00,,0829.6,5.00,0.00,29.7,28.2,00.0,38.0,31.3,23.4,0000.0,0003.75,0009.59,0002.79
2023-05-28 03:50:00,,0829.7,5.00,0.00,29.7,28.2,00.0,38.0,31.3,23.0,0000.0,0003.74,0009.63,0002.73
2023-05-28 03:51:00,,0829.7,5.00,0.00,29.7,28.2,00.0,38.0,31.3,23.2,0000.0,0003.70,0009.35,0002.69
2023-05-28 03:52:00,,0829.7,5.00,0.00,29.7,28.1,00.0,38.0,31.3,23.3,0000.0,0003.72,0009.06,0002.66
2023-05-28 03:53:00,,0829.8,5.00,0.00,29.7,28.2,00.0,38.0,31.3,23.2,0000.0,0003.69,0008.90,0002.67
2023-05-28 03:54:00,,0829.8,5.00,0.00,29.7,28.2,00.0,38.0,31.4,23.1,0000.0,0003.69,0008.24,0002.69
2023-05-28 03:55:00,,0830.0,5.01,0.00,29.8,28.2,00.0,38.1,31.4,23.2,0000.0,0003.71,0007.72,0002.69
2023-05-28 03:56:00,,0830.0,5.00,0.00,29.8,28.3,00.0,38.1,31.4,22.9,0000.0,0003.72,0007.67,0002.72
2023-05-28 03:57:00,,0830.0,5.00,0.00,29.8,28.3,00.0,38.1,31.4,22.7,0000.0,0003.76,0007.74,0002.78
2023-05-28 03:58:00,,0830.0,5.00,0.00,29.8,28.3,00.0,38.1,31.4,23.2,0000.0,0003.77,0007.80,0002.81
2023-05-28 03:59:00,,0830.1,5.00,0.00,29.8,28.3,00.0,38.1,31.4,23.6,0000.0,0003.75,0007.93,0002.80
